DAL1959 KDAB-KATL

Flight info

Callsign DAL1959
Flight time 1h 9m
Altitude 30000
Route ROYES7 CRG SHRKS LAIRI LARZZ SITTH3
Aircraft B738/M-SDE2E3FGHIRWXY/LB1

Departure

Time 2026-05-01 11:04
Airport Daytona Beach International Airport (KDAB)

Arrival

Time 2026-05-01 12:14
Airport Hartsfield Jackson Atlanta International Airport (KATL)
Time Latitude Longitude Altitude Speed Heading
2026-05-01 10:51 29.18366 -81.06043 40 ft 0 kts 285°
2026-05-01 10:58 29.18364 -81.06036 39 ft 4 kts 279°
2026-05-01 10:58 29.18364 -81.06020 39 ft 4 kts 231°
2026-05-01 10:58 29.18384 -81.06008 39 ft 3 kts 191°
2026-05-01 10:59 29.18388 -81.06007 39 ft 1 kts 191°
2026-05-01 11:00 29.18379 -81.06009 39 ft 5 kts 187°
2026-05-01 11:01 29.18339 -81.05971 37 ft 11 kts 111°
2026-05-01 11:01 29.18310 -81.05863 36 ft 16 kts 126°
2026-05-01 11:01 29.18224 -81.05787 37 ft 16 kts 112°
2026-05-01 11:01 29.18259 -81.05677 39 ft 15 kts 62°
2026-05-01 11:02 29.18306 -81.05562 40 ft 17 kts 65°
2026-05-01 11:02 29.18358 -81.05433 39 ft 19 kts 65°
2026-05-01 11:02 29.18412 -81.05301 42 ft 18 kts 65°
2026-05-01 11:02 29.18464 -81.05172 40 ft 17 kts 65°
2026-05-01 11:03 29.18515 -81.05049 44 ft 17 kts 65°
2026-05-01 11:03 29.18562 -81.04931 46 ft 14 kts 65°
2026-05-01 11:03 29.18535 -81.04841 46 ft 13 kts 153°
2026-05-01 11:03 29.18451 -81.04852 46 ft 14 kts 226°
2026-05-01 11:04 29.18356 -81.05070 45 ft 62 kts 245°
2026-05-01 11:04 29.18069 -81.05780 40 ft 132 kts 245°
2026-05-01 11:04 29.17590 -81.06925 181 ft 178 kts 243°
2026-05-01 11:04 29.17000 -81.08239 785 ft 197 kts 242°
2026-05-01 11:05 29.16337 -81.09682 1361 ft 212 kts 242°
2026-05-01 11:05 29.15609 -81.11252 1894 ft 228 kts 242°
2026-05-01 11:05 29.14846 -81.12952 2230 ft 251 kts 243°
2026-05-01 11:05 29.14044 -81.14759 2927 ft 256 kts 244°
2026-05-01 11:06 29.13241 -81.16571 3662 ft 260 kts 245°
2026-05-01 11:06 29.12452 -81.18450 4417 ft 261 kts 253°
2026-05-01 11:06 29.12390 -81.20491 5142 ft 261 kts 286°
2026-05-01 11:07 29.14526 -81.23869 6570 ft 270 kts 315°
2026-05-01 11:07 29.15931 -81.25328 7284 ft 273 kts 316°
2026-05-01 11:07 29.17339 -81.26768 7974 ft 275 kts 316°
2026-05-01 11:07 29.18768 -81.28241 8633 ft 278 kts 316°
2026-05-01 11:08 29.20212 -81.29745 9291 ft 281 kts 315°
2026-05-01 11:08 29.21651 -81.31253 9933 ft 283 kts 315°
2026-05-01 11:08 29.24648 -81.34418 10601 ft 313 kts 314°
2026-05-01 11:09 29.26309 -81.36179 10760 ft 331 kts 314°
2026-05-01 11:09 29.28020 -81.37992 11064 ft 343 kts 314°
2026-05-01 11:09 29.29938 -81.39697 11609 ft 351 kts 326°
2026-05-01 11:10 29.34649 -81.41379 12794 ft 367 kts 349°
2026-05-01 11:10 29.37209 -81.41622 13383 ft 370 kts 351°
2026-05-01 11:10 29.39761 -81.41824 13943 ft 372 kts 351°
2026-05-01 11:10 29.42347 -81.42033 14462 ft 374 kts 351°
2026-05-01 11:11 29.44960 -81.42268 14888 ft 378 kts 351°
2026-05-01 11:11 29.47610 -81.42517 15371 ft 380 kts 351°
2026-05-01 11:11 29.50243 -81.42756 15887 ft 382 kts 350°
2026-05-01 11:11 29.52894 -81.43015 16396 ft 384 kts 350°
2026-05-01 11:12 29.55545 -81.43278 16861 ft 386 kts 350°
2026-05-01 11:12 29.58258 -81.43544 17314 ft 389 kts 350°
2026-05-01 11:12 29.60940 -81.43808 17794 ft 391 kts 350°
2026-05-01 11:12 29.63665 -81.44076 18227 ft 394 kts 350°
2026-05-01 11:13 29.66418 -81.44347 18667 ft 397 kts 350°
2026-05-01 11:13 29.69158 -81.44616 19085 ft 399 kts 350°
2026-05-01 11:13 29.71946 -81.44890 19499 ft 402 kts 350°
2026-05-01 11:13 29.74752 -81.45166 19877 ft 405 kts 350°
2026-05-01 11:14 29.77566 -81.45443 20247 ft 408 kts 350°
2026-05-01 11:14 29.80381 -81.45727 20634 ft 409 kts 349°
2026-05-01 11:14 29.83237 -81.46014 21016 ft 412 kts 349°
2026-05-01 11:14 29.86088 -81.46298 21393 ft 413 kts 349°
2026-05-01 11:15 29.88943 -81.46580 21727 ft 416 kts 349°
2026-05-01 11:15 29.91842 -81.46866 22040 ft 419 kts 349°
2026-05-01 11:15 29.94755 -81.47152 22383 ft 420 kts 349°
2026-05-01 11:15 29.97663 -81.47437 22724 ft 422 kts 349°
2026-05-01 11:16 30.00630 -81.47728 23042 ft 424 kts 349°
2026-05-01 11:16 30.03561 -81.48018 23327 ft 426 kts 348°
2026-05-01 11:16 30.06515 -81.48310 23627 ft 427 kts 348°
2026-05-01 11:16 30.09498 -81.48603 23911 ft 429 kts 348°
2026-05-01 11:17 30.12446 -81.48892 24177 ft 431 kts 348°
2026-05-01 11:17 30.15465 -81.49189 24464 ft 433 kts 348°
2026-05-01 11:17 30.18480 -81.49485 24776 ft 433 kts 348°
2026-05-01 11:17 30.21473 -81.49778 25039 ft 435 kts 348°
2026-05-01 11:18 30.24486 -81.50074 25303 ft 436 kts 348°
2026-05-01 11:18 30.27522 -81.50375 25590 ft 437 kts 348°
2026-05-01 11:18 30.28525 -81.50475 25679 ft 437 kts 348°
2026-05-01 11:19 30.30735 -81.50785 25873 ft 433 kts 342°
2026-05-01 11:19 30.33574 -81.51729 26131 ft 424 kts 332°
2026-05-01 11:19 30.36234 -81.53183 26381 ft 419 kts 324°
2026-05-01 11:19 30.38612 -81.55090 26629 ft 414 kts 317°
2026-05-01 11:20 30.40880 -81.57169 26890 ft 415 kts 316°
2026-05-01 11:20 30.43126 -81.59239 27142 ft 416 kts 316°
2026-05-01 11:20 30.45397 -81.61321 27388 ft 416 kts 316°
2026-05-01 11:20 30.47665 -81.63386 27603 ft 417 kts 317°
2026-05-01 11:21 30.49965 -81.65466 27921 ft 416 kts 317°
2026-05-01 11:21 30.52245 -81.67521 28298 ft 413 kts 317°
2026-05-01 11:21 30.54496 -81.69550 28701 ft 410 kts 317°
2026-05-01 11:21 30.56726 -81.71561 29074 ft 407 kts 317°
2026-05-01 11:22 30.58965 -81.73585 29345 ft 407 kts 317°
2026-05-01 11:22 30.61195 -81.75593 29646 ft 407 kts 319°
2026-05-01 11:22 30.63551 -81.77392 29929 ft 410 kts 325°
2026-05-01 11:22 30.66101 -81.78902 29916 ft 409 kts 327°
2026-05-01 11:23 30.71211 -81.81807 29940 ft 410 kts 327°
2026-05-01 11:23 30.76336 -81.84731 29954 ft 411 kts 327°
2026-05-01 11:24 30.81489 -81.87700 29949 ft 412 kts 327°
2026-05-01 11:25 30.89169 -81.92156 29952 ft 412 kts 327°
2026-05-01 11:25 30.96841 -81.96618 29953 ft 410 kts 327°
2026-05-01 11:26 31.04470 -82.01059 29961 ft 406 kts 326°
2026-05-01 11:27 31.09497 -82.03991 29970 ft 403 kts 326°
2026-05-01 11:27 31.14496 -82.06912 29973 ft 401 kts 326°
2026-05-01 11:28 31.19485 -82.09829 29973 ft 400 kts 326°
2026-05-01 11:28 31.24452 -82.12739 29973 ft 399 kts 326°
2026-05-01 11:29 31.31899 -82.17101 29978 ft 399 kts 326°
2026-05-01 11:30 31.39333 -82.21474 29970 ft 399 kts 326°
2026-05-01 11:30 31.44272 -82.24380 29973 ft 399 kts 326°
2026-05-01 11:31 31.49236 -82.27305 29974 ft 399 kts 326°
2026-05-01 11:31 31.54207 -82.30234 29972 ft 399 kts 326°
2026-05-01 11:32 31.59171 -82.33164 29973 ft 399 kts 325°
2026-05-01 11:32 31.64129 -82.36095 29970 ft 399 kts 325°
2026-05-01 11:33 31.69081 -82.39024 29972 ft 399 kts 325°
2026-05-01 11:33 31.74044 -82.41964 29973 ft 399 kts 325°
2026-05-01 11:34 31.78996 -82.44903 29974 ft 398 kts 325°
2026-05-01 11:34 31.83930 -82.47834 29985 ft 398 kts 325°
2026-05-01 11:35 31.88866 -82.50767 29982 ft 399 kts 325°
2026-05-01 11:35 31.93819 -82.53718 29982 ft 399 kts 325°
2026-05-01 11:36 31.98389 -82.57223 29991 ft 387 kts 313°
2026-05-01 11:36 32.02441 -82.61383 29993 ft 386 kts 313°
2026-05-01 11:37 32.06502 -82.65551 29968 ft 382 kts 312°
2026-05-01 11:37 32.10419 -82.69543 29979 ft 368 kts 312°
2026-05-01 11:38 32.14283 -82.73491 29815 ft 369 kts 312°
2026-05-01 11:38 32.16212 -82.75465 29501 ft 364 kts 312°
2026-05-01 11:38 32.18122 -82.77415 29050 ft 361 kts 312°
2026-05-01 11:38 32.20020 -82.79355 28557 ft 359 kts 311°
2026-05-01 11:39 32.21890 -82.81272 28089 ft 357 kts 311°
2026-05-01 11:39 32.23760 -82.83185 27607 ft 355 kts 311°
2026-05-01 11:39 32.25615 -82.85084 27129 ft 354 kts 311°
2026-05-01 11:39 32.27484 -82.87000 26650 ft 352 kts 311°
2026-05-01 11:40 32.29338 -82.88901 26170 ft 351 kts 311°
2026-05-01 11:40 32.31157 -82.90767 25700 ft 350 kts 311°
2026-05-01 11:40 32.32991 -82.92650 25231 ft 349 kts 310°
2026-05-01 11:40 32.34830 -82.94539 24766 ft 347 kts 310°
2026-05-01 11:41 32.36638 -82.96395 24309 ft 346 kts 310°
2026-05-01 11:41 32.38469 -82.98277 23924 ft 343 kts 310°
2026-05-01 11:41 32.40243 -83.00099 23715 ft 337 kts 310°
2026-05-01 11:41 32.42022 -83.01935 23506 ft 347 kts 310°
2026-05-01 11:42 32.43864 -83.03844 23280 ft 356 kts 310°
2026-05-01 11:42 32.45755 -83.05798 23034 ft 357 kts 311°
2026-05-01 11:42 32.47612 -83.07709 22788 ft 354 kts 311°
2026-05-01 11:42 32.49471 -83.09625 22556 ft 352 kts 311°
2026-05-01 11:43 32.51306 -83.11518 22330 ft 349 kts 311°
2026-05-01 11:43 32.53130 -83.13402 22103 ft 347 kts 311°
2026-05-01 11:43 32.54925 -83.15260 21884 ft 345 kts 311°
2026-05-01 11:44 32.58531 -83.18992 21428 ft 341 kts 311°
2026-05-01 11:44 32.60311 -83.20837 21220 ft 340 kts 311°
2026-05-01 11:44 32.62082 -83.22673 21004 ft 339 kts 311°
2026-05-01 11:44 32.63861 -83.24519 20780 ft 338 kts 311°
2026-05-01 11:45 32.65622 -83.26347 20569 ft 337 kts 311°
2026-05-01 11:45 32.67381 -83.28176 20351 ft 337 kts 311°
2026-05-01 11:45 32.69152 -83.30017 20134 ft 337 kts 311°
2026-05-01 11:45 32.70916 -83.31853 19914 ft 337 kts 311°
2026-05-01 11:46 32.71505 -83.32466 19836 ft 336 kts 311°
2026-05-01 11:46 32.72851 -83.33867 19668 ft 336 kts 311°
2026-05-01 11:46 32.74621 -83.35709 19450 ft 336 kts 311°
2026-05-01 11:47 32.75779 -83.36914 19303 ft 335 kts 311°
2026-05-01 11:47 32.78118 -83.39352 19013 ft 334 kts 311°
2026-05-01 11:47 32.79858 -83.41168 18803 ft 333 kts 311°
2026-05-01 11:47 32.81020 -83.42381 18658 ft 333 kts 311°
2026-05-01 11:48 32.82767 -83.44205 18442 ft 331 kts 311°
2026-05-01 11:48 32.84493 -83.46007 18221 ft 330 kts 311°
2026-05-01 11:48 32.86193 -83.47783 18017 ft 328 kts 312°
2026-05-01 11:48 32.87915 -83.49585 17817 ft 327 kts 312°
2026-05-01 11:49 32.89611 -83.51359 17602 ft 326 kts 311°
2026-05-01 11:49 32.91310 -83.53138 17396 ft 325 kts 311°
2026-05-01 11:49 32.93018 -83.54929 17188 ft 325 kts 312°
2026-05-01 11:49 32.94718 -83.56709 16977 ft 325 kts 312°
2026-05-01 11:50 32.96410 -83.58479 16769 ft 325 kts 312°
2026-05-01 11:50 32.98104 -83.60251 16561 ft 324 kts 312°
2026-05-01 11:50 32.99798 -83.62024 16349 ft 324 kts 312°
2026-05-01 11:50 33.01497 -83.63804 16140 ft 324 kts 312°
2026-05-01 11:51 33.03184 -83.65572 15931 ft 324 kts 312°
2026-05-01 11:51 33.04881 -83.67351 15723 ft 324 kts 312°
2026-05-01 11:51 33.06574 -83.69128 15517 ft 324 kts 313°
2026-05-01 11:51 33.08257 -83.70895 15313 ft 323 kts 313°
2026-05-01 11:52 33.09933 -83.72656 15102 ft 323 kts 313°
2026-05-01 11:52 33.11627 -83.74436 14891 ft 322 kts 313°
2026-05-01 11:52 33.13306 -83.76202 14690 ft 321 kts 313°
2026-05-01 11:52 33.14974 -83.77956 14484 ft 321 kts 313°
2026-05-01 11:53 33.16641 -83.79712 14277 ft 320 kts 313°
2026-05-01 11:53 33.18319 -83.81478 14074 ft 319 kts 313°
2026-05-01 11:53 33.19931 -83.83281 13864 ft 317 kts 309°
2026-05-01 11:53 33.21424 -83.85197 13669 ft 315 kts 307°
2026-05-01 11:54 33.22887 -83.87148 13474 ft 315 kts 307°
2026-05-01 11:54 33.24347 -83.89099 13266 ft 315 kts 308°
2026-05-01 11:54 33.25810 -83.91038 13065 ft 314 kts 308°
2026-05-01 11:54 33.27280 -83.92975 12867 ft 314 kts 308°
2026-05-01 11:55 33.28745 -83.94897 12666 ft 314 kts 308°
2026-05-01 11:55 33.30216 -83.96822 12477 ft 314 kts 308°
2026-05-01 11:55 33.31699 -83.98762 12268 ft 313 kts 308°
2026-05-01 11:55 33.33155 -84.00667 12075 ft 313 kts 309°
2026-05-01 11:56 33.34632 -84.02601 11893 ft 312 kts 308°
2026-05-01 11:56 33.36078 -84.04493 11702 ft 312 kts 309°
2026-05-01 11:56 33.37543 -84.06410 11550 ft 311 kts 309°
2026-05-01 11:56 33.38993 -84.08312 11376 ft 311 kts 309°
2026-05-01 11:57 33.40458 -84.10233 11204 ft 311 kts 309°
2026-05-01 11:57 33.41923 -84.12154 11032 ft 311 kts 309°
2026-05-01 11:57 33.43375 -84.14060 10866 ft 311 kts 309°
2026-05-01 11:57 33.44819 -84.15957 10693 ft 310 kts 309°
2026-05-01 11:58 33.46262 -84.17851 10514 ft 304 kts 309°
2026-05-01 11:58 33.47669 -84.19701 10338 ft 296 kts 309°
2026-05-01 11:58 33.50366 -84.23246 10021 ft 281 kts 309°
2026-05-01 11:59 33.51653 -84.24939 9932 ft 271 kts 309°
2026-05-01 11:59 33.52905 -84.26636 9737 ft 265 kts 302°
2026-05-01 11:59 33.53618 -84.28599 9583 ft 257 kts 280°
2026-05-01 12:00 33.53754 -84.32891 9321 ft 261 kts 268°
2026-05-01 12:00 33.53720 -84.35090 9172 ft 266 kts 269°
2026-05-01 12:00 33.53693 -84.39473 8883 ft 261 kts 269°
2026-05-01 12:01 33.53688 -84.41645 8720 ft 261 kts 269°
2026-05-01 12:01 33.53685 -84.43824 8567 ft 261 kts 269°
2026-05-01 12:01 33.53684 -84.45983 8416 ft 261 kts 269°
2026-05-01 12:01 33.53684 -84.48163 8280 ft 261 kts 269°
2026-05-01 12:02 33.53684 -84.50332 8136 ft 261 kts 269°
2026-05-01 12:02 33.53683 -84.52477 8000 ft 251 kts 269°
2026-05-01 12:02 33.53682 -84.54537 7838 ft 241 kts 269°
2026-05-01 12:02 33.53680 -84.56494 7702 ft 234 kts 269°
2026-05-01 12:03 33.53676 -84.58437 7586 ft 234 kts 269°
2026-05-01 12:03 33.53674 -84.60425 7481 ft 240 kts 269°
2026-05-01 12:03 33.53672 -84.62430 7340 ft 242 kts 269°
2026-05-01 12:03 33.53669 -84.64437 7192 ft 240 kts 269°
2026-05-01 12:04 33.53665 -84.66455 7054 ft 239 kts 269°
2026-05-01 12:04 33.53662 -84.68431 6923 ft 238 kts 269°
2026-05-01 12:04 33.53656 -84.70406 6786 ft 238 kts 269°
2026-05-01 12:04 33.53654 -84.72387 6665 ft 238 kts 269°
2026-05-01 12:05 33.53653 -84.74368 6530 ft 238 kts 269°
2026-05-01 12:05 33.53649 -84.78336 6272 ft 237 kts 269°
2026-05-01 12:05 33.53645 -84.80312 6144 ft 238 kts 269°
2026-05-01 12:06 33.53691 -84.82303 5978 ft 240 kts 279°
2026-05-01 12:06 33.54410 -84.84093 5815 ft 240 kts 311°
2026-05-01 12:06 33.55732 -84.85167 5657 ft 234 kts 340°
2026-05-01 12:06 33.57336 -84.85321 5524 ft 229 kts 11°
2026-05-01 12:07 33.58760 -84.84532 5402 ft 227 kts 39°
2026-05-01 12:07 33.59728 -84.83094 5291 ft 219 kts 64°
2026-05-01 12:07 33.60196 -84.81380 5176 ft 213 kts 76°
2026-05-01 12:07 33.60507 -84.79663 5039 ft 211 kts 78°
2026-05-01 12:08 33.60805 -84.77941 4911 ft 211 kts 78°
2026-05-01 12:08 33.61112 -84.76209 4787 ft 212 kts 77°
2026-05-01 12:08 33.61422 -84.74475 4662 ft 211 kts 77°
2026-05-01 12:08 33.61730 -84.72776 4545 ft 211 kts 77°
2026-05-01 12:09 33.62042 -84.71060 4426 ft 210 kts 77°
2026-05-01 12:09 33.62351 -84.69375 4295 ft 201 kts 77°
2026-05-01 12:09 33.62640 -84.67799 4162 ft 188 kts 77°
2026-05-01 12:09 33.62914 -84.66302 4078 ft 179 kts 77°
2026-05-01 12:10 33.63120 -84.64789 3959 ft 187 kts 83°
2026-05-01 12:10 33.63193 -84.61697 3589 ft 179 kts 89°
2026-05-01 12:10 33.63194 -84.60235 3379 ft 173 kts 89°
2026-05-01 12:11 33.63187 -84.57499 3085 ft 154 kts 88°
2026-05-01 12:11 33.63185 -84.56215 2928 ft 155 kts 88°
2026-05-01 12:11 33.63188 -84.54937 2706 ft 151 kts 90°
2026-05-01 12:12 33.63187 -84.53710 2501 ft 145 kts 91°
2026-05-01 12:12 33.63183 -84.52482 2313 ft 149 kts 92°
2026-05-01 12:12 33.63181 -84.51227 2105 ft 152 kts 92°
2026-05-01 12:12 33.63182 -84.49963 1893 ft 151 kts 91°
2026-05-01 12:13 33.63199 -84.48744 1735 ft 154 kts 88°
2026-05-01 12:13 33.63181 -84.47421 1503 ft 155 kts 90°
2026-05-01 12:13 33.63181 -84.46126 1302 ft 156 kts 89°
2026-05-01 12:13 33.63181 -84.44836 1097 ft 154 kts 89°
2026-05-01 12:14 33.63185 -84.43598 1008 ft 136 kts 88°
2026-05-01 12:14 33.63192 -84.42949 1006 ft 49 kts 90°
2026-05-01 12:14 33.63209 -84.42618 1005 ft 20 kts 68°
2026-05-01 12:14 33.63282 -84.42448 1005 ft 27 kts 59°
2026-05-01 12:15 33.63371 -84.42272 1005 ft 19 kts 55°
2026-05-01 12:15 33.63514 -84.42234 1006 ft 25 kts 355°
2026-05-01 12:15 33.63652 -84.42242 1006 ft 18 kts 359°
2026-05-01 12:15 33.63764 -84.42281 1006 ft 18 kts 292°
2026-05-01 12:16 33.63776 -84.42427 1006 ft 18 kts 283°
2026-05-01 12:16 33.63780 -84.42509 1006 ft 0 kts 272°